SWR201 GCLP-LSZH

Flight info

Callsign SWR201
Flight time N/A
Altitude 40000
Route VASTO UN858 AKUDA DCT PESAS DCT OSLEP DCT OXACA DCT HIJ DCT CRISA DCT INPAN DCT VTB DCT PALIO DCT SEGRE DCT YAKXU DCT RONNY DCT TOPTU DCT TOU DCT GAI DCT MEN DCT NINUN DCT LATAM DCT ETREK DCT LTP DCT SOPLO DCT OMASI DCT KINNI DCT SOSAL/N0444F320 DCT KORED N871 BERSU
Aircraft MD11/H-SDE1E2E3FGHIJ2J3J4J5M1RWXY/LB1D1

Departure

Time 2026-04-27 08:57
Airport Gran Canaria Airport (GCLP)

Arrival

Time N/A
Airport Zürich Airport (LSZH)
Time Latitude Longitude Altitude Speed Heading
2026-04-27 08:45 27.93089 -15.39143 92 ft 0 kts 291°
2026-04-27 08:48 27.93085 -15.39130 91 ft 4 kts 291°
2026-04-27 08:48 27.93076 -15.39105 80 ft 3 kts 291°
2026-04-27 08:49 27.93069 -15.39079 91 ft 4 kts 264°
2026-04-27 08:49 27.93074 -15.39058 90 ft 4 kts 216°
2026-04-27 08:49 27.93097 -15.39047 90 ft 4 kts 194°
2026-04-27 08:49 27.93116 -15.39040 91 ft 0 kts 201°
2026-04-27 08:52 27.93112 -15.39043 92 ft 3 kts 201°
2026-04-27 08:52 27.93057 -15.39066 93 ft 14 kts 201°
2026-04-27 08:53 27.92934 -15.39121 96 ft 23 kts 202°
2026-04-27 08:53 27.92788 -15.39199 97 ft 18 kts 222°
2026-04-27 08:53 27.92702 -15.39260 103 ft 12 kts 200°
2026-04-27 08:53 27.92627 -15.39290 105 ft 11 kts 199°
2026-04-27 08:54 27.92560 -15.39318 108 ft 10 kts 200°
2026-04-27 08:54 27.92490 -15.39322 107 ft 13 kts 160°
2026-04-27 08:54 27.92426 -15.39233 106 ft 11 kts 124°
2026-04-27 08:54 27.92389 -15.39217 106 ft 4 kts 179°
2026-04-27 08:55 27.92369 -15.39221 106 ft 2 kts 192°
2026-04-27 08:55 27.92326 -15.39237 106 ft 13 kts 201°
2026-04-27 08:55 27.92210 -15.39288 105 ft 21 kts 202°
2026-04-27 08:55 27.92081 -15.39305 101 ft 17 kts 172°
2026-04-27 08:56 27.91954 -15.39290 96 ft 17 kts 168°
2026-04-27 08:56 27.91912 -15.39243 97 ft 3 kts 87°
2026-04-27 08:56 27.91921 -15.39224 95 ft 3 kts 53°
2026-04-27 08:56 27.91942 -15.39212 96 ft 4 kts 23°
2026-04-27 08:57 27.92844 -15.38808 97 ft 160 kts 20°
2026-04-27 08:57 27.93872 -15.38327 1185 ft 154 kts 19°
2026-04-27 08:57 27.94916 -15.37872 2235 ft 179 kts 18°
2026-04-27 08:58 27.96252 -15.37316 2435 ft 226 kts 18°
2026-04-27 08:58 27.97801 -15.36657 2691 ft 245 kts 19°
2026-04-27 08:58 27.99384 -15.35970 3051 ft 247 kts 19°
2026-04-27 08:58 28.00992 -15.35273 3704 ft 247 kts 19°
2026-04-27 08:59 28.02604 -15.34575 4410 ft 249 kts 19°
2026-04-27 08:59 28.04234 -15.33867 5118 ft 252 kts 20°
2026-04-27 08:59 28.05885 -15.33146 5783 ft 257 kts 20°
2026-04-27 08:59 28.07564 -15.32412 6479 ft 261 kts 20°
2026-04-27 09:00 28.09265 -15.31667 7219 ft 262 kts 20°
2026-04-27 09:00 28.10981 -15.30917 7965 ft 267 kts 20°
2026-04-27 09:00 28.12721 -15.30156 8721 ft 270 kts 20°
2026-04-27 09:00 28.14510 -15.29490 9539 ft 274 kts 15°
2026-04-27 09:01 28.16370 -15.28919 10192 ft 283 kts 14°
2026-04-27 09:01 28.18378 -15.28335 10333 ft 313 kts 14°
2026-04-27 09:01 28.20582 -15.27702 10495 ft 341 kts 14°
2026-04-27 09:01 28.22924 -15.27031 11228 ft 347 kts 14°
2026-04-27 09:02 28.25279 -15.26355 12169 ft 351 kts 14°
2026-04-27 09:02 28.27676 -15.25665 12928 ft 359 kts 14°
2026-04-27 09:02 28.30111 -15.24964 13830 ft 362 kts 13°
2026-04-27 09:02 28.32558 -15.24203 14492 ft 370 kts 19°
2026-04-27 09:03 28.34897 -15.22945 15228 ft 375 kts 28°
2026-04-27 09:03 28.37139 -15.21378 15948 ft 381 kts 31°
2026-04-27 09:03 28.39354 -15.19695 16636 ft 385 kts 33°
2026-04-27 09:03 28.41577 -15.17971 17356 ft 389 kts 33°
2026-04-27 09:04 28.43831 -15.16231 18000 ft 394 kts 32°
2026-04-27 09:04 28.46122 -15.14477 18615 ft 399 kts 32°
2026-04-27 09:04 28.48440 -15.12717 19209 ft 403 kts 32°
2026-04-27 09:04 28.50774 -15.10950 19814 ft 406 kts 32°
2026-04-27 09:05 28.53138 -15.09165 20395 ft 409 kts 31°
2026-04-27 09:05 28.55515 -15.07374 20992 ft 412 kts 32°
2026-04-27 09:05 28.57915 -15.05567 21545 ft 416 kts 31°
2026-04-27 09:05 28.60340 -15.03739 22111 ft 419 kts 32°
2026-04-27 09:06 28.62776 -15.01897 22647 ft 422 kts 31°
2026-04-27 09:06 28.65238 -15.00042 23196 ft 425 kts 32°
2026-04-27 09:06 28.67714 -14.98177 23724 ft 429 kts 32°
2026-04-27 09:06 28.70212 -14.96295 24173 ft 432 kts 32°
2026-04-27 09:07 28.72691 -14.94422 24643 ft 434 kts 31°
2026-04-27 09:07 28.75212 -14.92517 25169 ft 435 kts 32°
2026-04-27 09:07 28.77735 -14.90606 25708 ft 437 kts 32°
2026-04-27 09:07 28.80274 -14.88683 26138 ft 441 kts 31°
2026-04-27 09:08 28.82831 -14.86743 26593 ft 443 kts 31°
2026-04-27 09:08 28.85408 -14.84788 27017 ft 446 kts 32°
2026-04-27 09:08 28.87999 -14.82822 27481 ft 448 kts 32°
2026-04-27 09:08 28.90604 -14.80846 27910 ft 451 kts 32°
2026-04-27 09:09 28.93227 -14.78859 28336 ft 454 kts 32°
2026-04-27 09:09 28.95868 -14.76859 28780 ft 457 kts 31°
2026-04-27 09:09 28.98524 -14.74847 29158 ft 460 kts 32°
2026-04-27 09:09 29.01195 -14.72824 29621 ft 461 kts 32°
2026-04-27 09:10 29.03880 -14.70792 30037 ft 464 kts 32°
2026-04-27 09:10 29.06572 -14.68751 30415 ft 466 kts 32°
2026-04-27 09:10 29.09281 -14.66695 30765 ft 468 kts 31°
2026-04-27 09:10 29.11992 -14.64638 31214 ft 468 kts 32°
2026-04-27 09:11 29.14713 -14.62572 31621 ft 469 kts 32°
2026-04-27 09:11 29.17435 -14.60506 32031 ft 470 kts 32°
2026-04-27 09:11 29.20157 -14.58439 32439 ft 470 kts 32°
2026-04-27 09:11 29.22885 -14.56363 32885 ft 470 kts 32°
2026-04-27 09:12 29.25612 -14.54286 33293 ft 471 kts 33°
2026-04-27 09:12 29.28338 -14.52206 33714 ft 471 kts 32°
2026-04-27 09:12 29.31070 -14.50122 34081 ft 472 kts 32°
2026-04-27 09:12 29.33801 -14.48036 34477 ft 472 kts 32°
2026-04-27 09:13 29.36528 -14.45954 34833 ft 471 kts 32°
2026-04-27 09:13 29.39258 -14.43869 35096 ft 473 kts 32°
2026-04-27 09:13 29.41997 -14.41776 35459 ft 472 kts 32°
2026-04-27 09:13 29.44734 -14.39680 35729 ft 473 kts 33°
2026-04-27 09:14 29.47471 -14.37580 36077 ft 473 kts 31°
2026-04-27 09:14 29.50205 -14.35486 36380 ft 473 kts 32°
2026-04-27 09:14 29.52950 -14.33383 36683 ft 474 kts 32°
2026-04-27 09:14 29.55686 -14.31286 37022 ft 473 kts 32°
2026-04-27 09:15 29.58422 -14.29181 37325 ft 474 kts 31°
2026-04-27 09:15 29.61161 -14.27070 37645 ft 474 kts 32°
2026-04-27 09:15 29.63894 -14.24963 37945 ft 474 kts 32°
2026-04-27 09:15 29.66635 -14.22852 38233 ft 474 kts 31°
2026-04-27 09:16 29.68448 -14.21455 38414 ft 474 kts 32°
2026-04-27 09:16 29.71191 -14.19343 38646 ft 476 kts 32°
2026-04-27 09:16 29.73946 -14.17220 38870 ft 476 kts 32°
2026-04-27 09:16 29.76695 -14.15100 39077 ft 476 kts 32°
2026-04-27 09:17 29.80341 -14.12283 39354 ft 476 kts 32°
2026-04-27 09:17 29.82200 -14.10846 39492 ft 476 kts 32°
2026-04-27 09:17 29.84950 -14.08721 39689 ft 477 kts 32°
2026-04-27 09:17 29.87701 -14.06594 39905 ft 476 kts 32°
2026-04-27 09:18 29.90457 -14.04462 40010 ft 479 kts 32°
2026-04-27 09:18 29.96020 -14.00156 40046 ft 483 kts 32°
2026-04-27 09:19 30.01581 -13.95844 40047 ft 481 kts 32°
2026-04-27 09:19 30.07135 -13.91531 40048 ft 481 kts 32°
2026-04-27 09:20 30.12647 -13.87245 40046 ft 481 kts 32°
2026-04-27 09:20 30.18233 -13.82897 40045 ft 482 kts 32°
2026-04-27 09:21 30.23793 -13.78562 40053 ft 483 kts 32°
2026-04-27 09:21 30.29326 -13.74242 40047 ft 483 kts 32°
2026-04-27 09:22 30.34926 -13.69863 40050 ft 483 kts 32°
2026-04-27 09:22 30.40451 -13.65538 40047 ft 483 kts 32°
2026-04-27 09:23 30.46012 -13.61173 40040 ft 483 kts 32°
2026-04-27 09:23 30.51560 -13.56792 40041 ft 483 kts 33°
2026-04-27 09:24 30.57105 -13.52385 40040 ft 483 kts 33°
2026-04-27 09:24 30.62647 -13.47971 40040 ft 484 kts 33°
2026-04-27 09:25 30.68207 -13.43540 40038 ft 485 kts 33°
2026-04-27 09:25 30.73771 -13.39101 40039 ft 485 kts 33°
2026-04-27 09:26 30.79332 -13.34657 40040 ft 485 kts 33°
2026-04-27 09:26 30.84891 -13.30210 40046 ft 485 kts 33°
2026-04-27 09:27 30.90448 -13.25758 40040 ft 485 kts 33°
2026-04-27 09:27 30.96016 -13.21314 40040 ft 485 kts 33°
2026-04-27 09:28 31.01595 -13.16878 40038 ft 485 kts 33°
2026-04-27 09:28 31.07169 -13.12447 40035 ft 485 kts 33°
2026-04-27 09:29 31.12754 -13.08000 40034 ft 486 kts 33°
2026-04-27 09:29 31.18341 -13.03543 40027 ft 486 kts 34°
2026-04-27 09:30 31.23927 -12.99081 40027 ft 486 kts 34°
2026-04-27 09:30 31.29472 -12.94645 40033 ft 486 kts 34°
2026-04-27 09:31 31.35055 -12.90173 40026 ft 486 kts 34°
2026-04-27 09:31 31.40636 -12.85694 40030 ft 486 kts 34°
2026-04-27 09:32 31.46214 -12.81212 40027 ft 486 kts 34°
2026-04-27 09:32 31.51799 -12.76719 40016 ft 486 kts 34°
2026-04-27 09:33 31.57376 -12.72224 40028 ft 487 kts 34°
2026-04-27 09:33 31.62957 -12.67708 40028 ft 487 kts 34°
2026-04-27 09:34 31.68527 -12.63188 40026 ft 487 kts 34°
2026-04-27 09:34 31.74114 -12.58660 40026 ft 487 kts 34°
2026-04-27 09:35 31.79692 -12.54138 40024 ft 487 kts 34°
2026-04-27 09:35 31.85273 -12.49608 40023 ft 487 kts 34°
2026-04-27 09:36 31.90853 -12.45070 40021 ft 487 kts 34°
2026-04-27 09:36 31.96426 -12.40532 40013 ft 487 kts 35°
2026-04-27 09:37 32.02006 -12.35983 40022 ft 488 kts 35°
2026-04-27 09:37 32.07563 -12.31456 40020 ft 489 kts 35°
2026-04-27 09:38 32.13196 -12.26867 40017 ft 489 kts 35°
2026-04-27 09:38 32.18785 -12.22306 40017 ft 489 kts 35°
2026-04-27 09:39 32.24339 -12.17768 40016 ft 489 kts 35°
2026-04-27 09:39 32.29927 -12.13195 40015 ft 489 kts 35°
2026-04-27 09:40 32.35507 -12.08620 40017 ft 488 kts 35°
2026-04-27 09:40 32.41077 -12.04047 40004 ft 488 kts 35°
2026-04-27 09:41 32.46657 -11.99460 40013 ft 488 kts 35°
2026-04-27 09:41 32.52236 -11.94865 40013 ft 488 kts 35°
2026-04-27 09:42 32.57808 -11.90269 40010 ft 488 kts 35°
2026-04-27 09:42 32.63382 -11.85665 40013 ft 488 kts 35°
2026-04-27 09:43 32.68934 -11.81056 40011 ft 487 kts 36°
2026-04-27 09:43 32.74481 -11.76442 40010 ft 487 kts 36°
2026-04-27 09:44 32.80037 -11.71826 40002 ft 487 kts 35°
2026-04-27 09:44 32.85596 -11.67206 40002 ft 487 kts 36°
2026-04-27 09:45 32.91149 -11.62584 39996 ft 487 kts 36°
2026-04-27 09:45 32.96704 -11.57952 39999 ft 487 kts 36°
2026-04-27 09:46 33.02253 -11.53318 39999 ft 487 kts 36°
2026-04-27 09:46 33.07808 -11.48672 39999 ft 487 kts 36°
2026-04-27 09:47 33.13353 -11.44026 39999 ft 487 kts 36°
2026-04-27 09:47 33.18894 -11.39363 39999 ft 487 kts 36°
2026-04-27 09:48 33.24416 -11.34675 40003 ft 487 kts 36°
2026-04-27 09:48 33.29944 -11.29979 39980 ft 487 kts 36°
2026-04-27 09:49 33.35477 -11.25280 39991 ft 488 kts 36°
2026-04-27 09:49 33.41010 -11.20574 39989 ft 488 kts 36°
2026-04-27 09:50 33.46546 -11.15858 39990 ft 488 kts 36°
2026-04-27 09:50 33.52082 -11.11135 39988 ft 488 kts 36°
2026-04-27 09:51 33.57613 -11.06408 39990 ft 488 kts 36°
2026-04-27 09:51 33.63110 -11.01703 39992 ft 488 kts 36°
2026-04-27 09:52 33.68641 -10.96960 39988 ft 488 kts 36°
2026-04-27 09:52 33.74170 -10.92212 39984 ft 488 kts 37°
2026-04-27 09:53 33.79695 -10.87460 39989 ft 489 kts 37°
2026-04-27 09:53 33.85221 -10.82697 39983 ft 488 kts 37°
2026-04-27 09:54 33.90733 -10.77916 39982 ft 488 kts 37°
2026-04-27 09:54 33.96246 -10.73139 39982 ft 488 kts 37°
2026-04-27 09:55 34.01767 -10.68356 39978 ft 489 kts 37°
2026-04-27 09:55 34.10047 -10.61174 39977 ft 489 kts 37°
2026-04-27 09:56 34.15567 -10.56377 39965 ft 489 kts 37°
2026-04-27 09:56 34.21084 -10.51573 39976 ft 489 kts 37°
2026-04-27 09:57 34.26602 -10.46760 39977 ft 489 kts 37°
2026-04-27 09:57 34.32122 -10.41937 39971 ft 489 kts 37°
2026-04-27 09:58 34.37641 -10.37107 39971 ft 490 kts 37°
2026-04-27 09:58 34.43159 -10.32270 39971 ft 490 kts 37°
2026-04-27 09:59 34.48676 -10.27427 39963 ft 490 kts 37°
2026-04-27 09:59 34.54195 -10.22564 39965 ft 490 kts 37°
2026-04-27 10:00 34.59659 -10.17726 39966 ft 490 kts 37°
2026-04-27 10:00 34.65180 -10.12847 39968 ft 491 kts 37°
2026-04-27 10:01 34.70733 -10.07945 39969 ft 490 kts 37°
2026-04-27 10:01 34.75321 -10.03892 39971 ft 490 kts 37°
2026-04-27 10:02 34.81731 -9.98221 39971 ft 490 kts 37°
2026-04-27 10:02 34.87241 -9.93336 39966 ft 490 kts 37°
2026-04-27 10:03 34.91855 -9.89239 39964 ft 489 kts 37°
2026-04-27 10:03 34.97354 -9.84348 39968 ft 489 kts 37°
2026-04-27 10:04 35.02851 -9.79450 39965 ft 490 kts 37°
2026-04-27 10:04 35.08355 -9.74538 39971 ft 490 kts 37°
2026-04-27 10:05 35.13862 -9.69615 39970 ft 490 kts 37°
2026-04-27 10:05 35.19319 -9.64729 39973 ft 489 kts 37°
2026-04-27 10:06 35.24847 -9.59770 39970 ft 489 kts 37°
2026-04-27 10:06 35.30288 -9.54873 39979 ft 489 kts 37°
2026-04-27 10:07 35.35766 -9.49917 39970 ft 489 kts 37°
2026-04-27 10:07 35.41236 -9.44974 39971 ft 489 kts 37°
2026-04-27 10:08 35.46761 -9.39982 39977 ft 491 kts 37°
2026-04-27 10:08 35.52264 -9.35004 39977 ft 491 kts 37°
2026-04-27 10:09 35.57759 -9.30024 39980 ft 491 kts 37°
2026-04-27 10:09 35.63215 -9.25069 39983 ft 491 kts 37°
2026-04-27 10:10 35.68705 -9.20076 39982 ft 491 kts 37°
2026-04-27 10:10 35.74198 -9.15071 39985 ft 491 kts 37°
2026-04-27 10:11 35.79683 -9.10065 39986 ft 491 kts 37°
2026-04-27 10:11 35.84743 -9.04474 39980 ft 490 kts 50°
2026-04-27 10:12 35.89114 -8.98005 39983 ft 491 kts 52°
2026-04-27 10:12 35.93536 -8.91589 39995 ft 491 kts 50°
2026-04-27 10:13 35.98077 -8.85304 39989 ft 490 kts 49°
2026-04-27 10:13 36.02660 -8.79051 39993 ft 491 kts 49°
2026-04-27 10:14 36.07236 -8.72797 39993 ft 491 kts 49°
2026-04-27 10:14 36.11806 -8.66527 39992 ft 492 kts 49°
2026-04-27 10:15 36.16387 -8.60226 40001 ft 492 kts 49°
2026-04-27 10:15 36.20960 -8.53922 40001 ft 492 kts 49°
2026-04-27 10:16 36.25513 -8.47636 40004 ft 489 kts 49°
2026-04-27 10:16 36.30047 -8.41364 40006 ft 489 kts 49°
2026-04-27 10:17 36.34583 -8.35079 40004 ft 489 kts 49°
2026-04-27 10:17 36.39076 -8.28806 40014 ft 490 kts 49°
2026-04-27 10:18 36.43604 -8.22476 40015 ft 490 kts 49°
2026-04-27 10:18 36.48133 -8.16154 40016 ft 490 kts 49°
2026-04-27 10:19 36.52652 -8.09845 40009 ft 488 kts 49°
2026-04-27 10:19 36.57169 -8.03526 40013 ft 488 kts 49°
2026-04-27 10:20 36.61679 -7.97204 40013 ft 488 kts 49°
2026-04-27 10:20 36.66180 -7.90882 40014 ft 488 kts 49°
2026-04-27 10:21 36.70686 -7.84542 40019 ft 488 kts 49°
2026-04-27 10:21 36.75181 -7.78203 40023 ft 488 kts 49°
2026-04-27 10:22 36.79671 -7.71861 40028 ft 487 kts 49°
2026-04-27 10:22 36.84158 -7.65510 40025 ft 487 kts 49°
2026-04-27 10:23 36.88639 -7.59154 40020 ft 488 kts 49°
2026-04-27 10:23 36.93110 -7.52780 40032 ft 488 kts 49°
2026-04-27 10:24 36.97568 -7.46394 40022 ft 488 kts 49°
2026-04-27 10:24 37.02012 -7.40042 40026 ft 488 kts 49°
2026-04-27 10:25 37.06479 -7.33659 40029 ft 487 kts 49°
2026-04-27 10:25 37.10941 -7.27270 40027 ft 487 kts 49°
2026-04-27 10:26 37.15399 -7.20873 40027 ft 487 kts 49°
2026-04-27 10:26 37.19790 -7.14405 40028 ft 488 kts 50°
2026-04-27 10:27 37.24146 -7.07871 40020 ft 488 kts 50°
2026-04-27 10:27 37.28496 -7.01339 40029 ft 487 kts 50°
2026-04-27 10:28 37.32845 -6.94812 40015 ft 487 kts 50°
2026-04-27 10:28 37.37190 -6.88282 40016 ft 487 kts 50°
2026-04-27 10:29 37.41530 -6.81747 40012 ft 487 kts 50°
2026-04-27 10:29 37.45871 -6.75197 40014 ft 487 kts 50°
2026-04-27 10:30 37.50213 -6.68634 40011 ft 488 kts 50°
2026-04-27 10:30 37.54549 -6.62064 40015 ft 488 kts 50°
2026-04-27 10:31 37.58879 -6.55492 40013 ft 487 kts 50°
2026-04-27 10:31 37.63207 -6.48909 40011 ft 487 kts 50°
2026-04-27 10:32 37.67524 -6.42329 40009 ft 487 kts 50°
2026-04-27 10:32 37.71835 -6.35717 40016 ft 487 kts 50°
2026-04-27 10:33 37.76132 -6.29101 40017 ft 487 kts 50°
2026-04-27 10:33 37.80413 -6.22525 40023 ft 487 kts 50°
2026-04-27 10:34 37.84715 -6.15914 40022 ft 486 kts 50°
2026-04-27 10:34 37.89015 -6.09296 40025 ft 487 kts 50°
2026-04-27 10:35 37.93308 -6.02672 40022 ft 486 kts 50°
2026-04-27 10:35 37.97549 -5.96000 40029 ft 486 kts 51°
2026-04-27 10:36 38.01734 -5.89282 40030 ft 486 kts 51°
2026-04-27 10:36 38.05928 -5.82539 40034 ft 486 kts 51°
2026-04-27 10:37 38.10116 -5.75807 40032 ft 486 kts 51°
2026-04-27 10:37 38.14304 -5.69067 40031 ft 486 kts 51°
2026-04-27 10:38 38.18489 -5.62320 40027 ft 486 kts 51°
2026-04-27 10:38 38.22672 -5.55559 40034 ft 486 kts 51°
2026-04-27 10:39 38.26847 -5.48799 40030 ft 486 kts 51°
2026-04-27 10:39 38.31020 -5.42027 40031 ft 486 kts 51°
2026-04-27 10:40 38.35191 -5.35244 40037 ft 486 kts 51°
2026-04-27 10:40 38.39358 -5.28453 40035 ft 486 kts 51°
2026-04-27 10:41 38.43524 -5.21651 40038 ft 486 kts 51°
2026-04-27 10:41 38.47673 -5.14839 40037 ft 486 kts 51°
2026-04-27 10:42 38.52103 -5.08408 40038 ft 485 kts 44°
2026-04-27 10:42 38.56926 -5.02375 40052 ft 486 kts 43°
2026-04-27 10:43 38.61789 -4.96372 40042 ft 486 kts 43°
2026-04-27 10:43 38.66613 -4.90328 40042 ft 485 kts 43°
2026-04-27 10:44 38.71421 -4.84252 40045 ft 485 kts 43°
2026-04-27 10:44 38.76222 -4.78165 40051 ft 485 kts 43°
2026-04-27 10:45 38.81021 -4.72073 40058 ft 485 kts 44°
2026-04-27 10:45 38.85811 -4.65981 40053 ft 485 kts 44°
2026-04-27 10:46 38.90570 -4.59915 40057 ft 485 kts 44°
2026-04-27 10:46 38.95354 -4.53797 40062 ft 485 kts 44°
2026-04-27 10:47 39.00128 -4.47681 40053 ft 484 kts 44°
2026-04-27 10:47 39.04906 -4.41568 40073 ft 485 kts 43°
2026-04-27 10:48 39.09690 -4.35444 40068 ft 484 kts 43°
2026-04-27 10:48 39.14467 -4.29318 40064 ft 485 kts 43°
2026-04-27 10:49 39.19240 -4.23184 40073 ft 485 kts 44°
2026-04-27 10:49 39.24013 -4.17036 40072 ft 485 kts 44°
2026-04-27 10:50 39.28751 -4.10923 40090 ft 485 kts 44°
2026-04-27 10:50 39.33517 -4.04759 40083 ft 485 kts 44°
2026-04-27 10:51 39.37505 -3.99592 40085 ft 484 kts 44°
2026-04-27 10:51 39.42264 -3.93415 40085 ft 485 kts 44°
2026-04-27 10:52 39.47021 -3.87227 40083 ft 485 kts 44°
2026-04-27 10:52 39.51738 -3.81079 40101 ft 485 kts 44°
2026-04-27 10:53 39.58831 -3.71743 40095 ft 484 kts 44°
2026-04-27 10:54 39.63549 -3.65523 40101 ft 484 kts 44°
2026-04-27 10:54 39.68279 -3.59288 40099 ft 484 kts 44°
2026-04-27 10:55 39.73003 -3.53053 40100 ft 484 kts 44°
2026-04-27 10:55 39.77804 -3.46935 40105 ft 483 kts 38°
2026-04-27 10:56 39.83237 -3.41855 40104 ft 481 kts 31°
2026-04-27 10:56 39.88866 -3.37178 40102 ft 480 kts 30°
2026-04-27 10:57 39.94473 -3.32454 40100 ft 480 kts 31°
2026-04-27 10:57 40.00048 -3.27660 40103 ft 480 kts 31°
2026-04-27 10:58 40.05574 -3.22869 40106 ft 480 kts 31°
2026-04-27 10:58 40.11140 -3.18033 40103 ft 480 kts 31°
2026-04-27 10:59 40.16699 -3.13198 40099 ft 480 kts 31°
2026-04-27 10:59 40.22252 -3.08359 40094 ft 480 kts 31°
2026-04-27 11:00 40.30565 -3.01076 40084 ft 479 kts 32°
2026-04-27 11:00 40.36110 -2.96205 40089 ft 479 kts 32°
2026-04-27 11:01 40.41648 -2.91340 40102 ft 479 kts 32°
2026-04-27 11:01 40.47147 -2.86503 40090 ft 479 kts 32°
2026-04-27 11:02 40.52677 -2.81629 40087 ft 479 kts 32°
2026-04-27 11:02 40.58211 -2.76742 40088 ft 479 kts 32°
2026-04-27 11:03 40.63738 -2.71850 40090 ft 479 kts 32°
2026-04-27 11:03 40.69259 -2.66953 40088 ft 479 kts 32°
2026-04-27 11:04 40.74781 -2.62046 40094 ft 478 kts 32°